IRIDIUM 146 (43254 NORAD) Tracking and Keplerian Element Data

This shows tracking and keplerian element data for the satellite.

Feedback or suggestion? Click here.




ElementValue
Catalog43254
NameIRIDIUM 146
Epoch Orbit10502
Epoch Day91.92920585
Epoch Year2020
RAAN158.3855
Inclination86.4004
Eccentricity0.0002647
Argument of Perigee93.3139
Mean Anonmoly266.8359
Mean Motion14.34216016
Decay Rate6.2E-07
L11 43254U 18030F 20091.92920585 .00000062 00000-0 15173-4 0 9991
L22 43254 86.4004 158.3855 0002647 93.3139 266.8359 14.34216016105029

Live tracking and technical data element details for IRIDIUM 146 (NORAD 43254). IRIDIUM 146 can be tracked NOW for your location showing map with azimuth and elevation plus other details from your city location.

Track the satellite on the map from your city or location and see movement details for azimuth, elevation, latitude, longitude, range, height, and movement on the map or in text.







IsCatalogInMostPopularTable: catalog: 43254, numindb: 334
Update: records affected: 1



GetName: 43254 IRIDIUM 146

Hit Count: updated at: Thu, 02 Apr 2020 04:17:03 GMT